Delta Virtual Airport Information Service

Doha Hamad International Airport

ICAO: OTHH Country: Qatar
Latitude: 25.2731 Longitude: 51.6081
Latest Arrival : QTR70 (EDDF-OTHH) Latest Departure : QTR273 (OTHH-EHAM)


WX CaptureLIVE
Data provided by noaa.gov | Fetched at 02:10:24

METAR : OTHH 300700Z 03007KT 9999 FEW038 27/20 Q1016 NOSIG

TAF : OTHH 300700Z 03007KT 9999 FEW038 27/20 Q1016 NOSIG


Runway Data for OTHH
Data provided by openaviationdata.com

Runway ID Mag Var Hdg Length Elevation Surface ILS Freq ILS Id ILS Slope
16L 2.24 156° 15912 ft 13 ft Asphalt 108.7 IDE 3
34R 2.24 336° 15912 ft 13 ft Asphalt 110.1 AZM 3
16R 2.24 156° 13944 ft 13 ft Asphalt 108.1 QAT 3
34L 2.24 336° 13944 ft 13 ft Asphalt 111.9 HJJ 3

Doha Hamad International Airport, Qatar
Use only for reference purposes



Not for navigational purposes.